096  
ASUS43 KGLD 101808  
RWRGLD  
 
GOODLAND FORECAST AREA HOURLY WEATHER ROUNDUP  
NATIONAL WEATHER SERVICE GOODLAND KS  
1200 PM MDT WED AUG 10 2022  
   
..OFFICIAL OBSERVATIONS
 
 
 
CITY SKY/WX TMP DP RH WIND PRES REMARKS
 
GOODLAND KS SUNNY 87 57 35 S8G17 30.28F  
HILL CITY KS SUNNY 92 58 31 VRB5 30.23F  
IMPERIAL NEB SUNNY 93 58 30 MISG 30.25F  
MCCOOK NEB SUNNY 94 54 25 S9 30.22F  
AKRON CO SUNNY 90 52 27 SE15 30.32S  
BURLINGTON CO SUNNY 89 59 36 S15G21 30.31F  
LIMON CO SUNNY 87 49 26 S16G24 30.37S  

 
   
..UNOFFICIAL OBSERVATIONS
 
 
 
CITY SKY/WX TMP DP RH WIND PRES REMARKS
 
COLBY KS SUNNY 91 55 30 S9 30.27F  
NORTON KS FAIR 90 57 33 CALM 30.26F  
SHARON SPRINGS N/A 86 63 45 CALM N/A  
YUMA CO FAIR 88 -6 3 SE10 30.29F  

 
 
 
CLICK HERE TO GO TO PREVIOUS BULLETINS.

The Nexlab KS Page
The Nexlab CO Page
The Nexlab NE Page Main Text Page